2015-04-03T00:00:14, 1/0386639939.15681,  7.1846513e-06,        -3.625793,        16.218359,       125.071577,  6.7739162e-06,        -2.211081,        32.935151,       124.715411
2015-04-03T00:00:46, 1/0386639971.15681,  7.1844986e-06,        -3.625827,        16.219076,       125.071561,  6.7737557e-06,        -2.211096,        32.935990,       124.715417
2015-04-03T00:01:18, 1/0386640003.15681,  7.1843487e-06,        -3.625860,        16.219781,       125.071544,  6.7735979e-06,        -2.211111,        32.936814,       124.715424
2015-04-03T00:01:50, 1/0386640035.15681,  7.1842015e-06,        -3.625892,        16.220474,       125.071528,  6.7734431e-06,        -2.211126,        32.937622,       124.715430
2015-04-03T00:02:22, 1/0386640067.15681,  7.1840571e-06,        -3.625924,        16.221155,       125.071511,  6.7732912e-06,        -2.211140,        32.938415,       124.715437
2015-04-03T00:02:54, 1/0386640099.15681,  7.1839155e-06,        -3.625956,        16.221824,       125.071495,  6.7731422e-06,        -2.211154,        32.939192,       124.715444
2015-04-03T00:03:26, 1/0386640131.15681,  7.1837767e-06,        -3.625987,        16.222481,       125.071479,  6.7729962e-06,        -2.211168,        32.939954,       124.715450
2015-04-03T00:03:58, 1/0386640163.15681,  7.1836407e-06,        -3.626017,        16.223126,       125.071462,  6.7728531e-06,        -2.211182,        32.940699,       124.715457
2015-04-03T00:04:30, 1/0386640195.15681,  7.1835075e-06,        -3.626046,        16.223758,       125.071446,  6.7727130e-06,        -2.211195,        32.941429,       124.715463
2015-04-03T00:05:02, 1/0386640227.15681,  7.1833771e-06,        -3.626075,        16.224379,       125.071429,  6.7725759e-06,        -2.211208,        32.942143,       124.715470
2015-04-03T00:05:34, 1/0386640259.15681,  7.1832495e-06,        -3.626103,        16.224987,       125.071413,  6.7724418e-06,        -2.211221,        32.942841,       124.715477
2015-04-03T00:06:06, 1/0386640291.15681,  7.1831248e-06,        -3.626131,        16.225583,       125.071397,  6.7723106e-06,        -2.211233,        32.943523,       124.715483
2015-04-03T00:06:38, 1/0386640323.15681,  7.1830029e-06,        -3.626158,        16.226167,       125.071380,  6.7721824e-06,        -2.211245,        32.944189,       124.715490
2015-04-03T00:07:10, 1/0386640355.15681,  7.1828838e-06,        -3.626184,        16.226739,       125.071364,  6.7720572e-06,        -2.211257,        32.944839,       124.715497
2015-04-03T00:07:42, 1/0386640387.15681,  7.1827675e-06,        -3.626210,        16.227298,       125.071347,  6.7719349e-06,        -2.211269,        32.945474,       124.715503
2015-04-03T00:08:14, 1/0386640419.15681,  7.1826540e-06,        -3.626235,        16.227846,       125.071331,  6.7718156e-06,        -2.211280,        32.946092,       124.715510
2015-04-03T00:08:46, 1/0386640451.15681,  7.1825433e-06,        -3.626260,        16.228382,       125.071315,  6.7716992e-06,        -2.211291,        32.946696,       124.715516
2015-04-03T00:09:18, 1/0386640483.15681,  7.1824353e-06,        -3.626284,        16.228905,       125.071298,  6.7715858e-06,        -2.211302,        32.947283,       124.715523
2015-04-03T00:09:50, 1/0386640515.15681,  7.1823301e-06,        -3.626307,        16.229417,       125.071282,  6.7714752e-06,        -2.211312,        32.947855,       124.715530
2015-04-03T00:10:22, 1/0386640547.15681,  7.1822276e-06,        -3.626330,        16.229917,       125.071265,  6.7713675e-06,        -2.211322,        32.948412,       124.715536
2015-04-03T00:10:54, 1/0386640579.15681,  7.1821278e-06,        -3.626352,        16.230405,       125.071249,  6.7712626e-06,        -2.211332,        32.948954,       124.715543
2015-04-03T00:11:26, 1/0386640611.15681,  7.1820308e-06,        -3.626373,        16.230882,       125.071233,  6.7711606e-06,        -2.211342,        32.949480,       124.715549
2015-04-03T00:11:58, 1/0386640643.15681,  7.1819363e-06,        -3.626394,        16.231347,       125.071216,  6.7710614e-06,        -2.211351,        32.949991,       124.715556
2015-04-03T00:12:30, 1/0386640675.15681,  7.1818445e-06,        -3.626414,        16.231801,       125.071200,  6.7709650e-06,        -2.211360,        32.950488,       124.715563
2015-04-03T00:13:02, 1/0386640707.15681,  7.1817554e-06,        -3.626434,        16.232244,       125.071183,  6.7708713e-06,        -2.211369,        32.950970,       124.715569
2015-04-03T00:13:34, 1/0386640739.15681,  7.1816688e-06,        -3.626453,        16.232675,       125.071167,  6.7707804e-06,        -2.211377,        32.951437,       124.715576
2015-04-03T00:14:06, 1/0386640771.15681,  7.1815847e-06,        -3.626472,        16.233096,       125.071151,  6.7706921e-06,        -2.211386,        32.951890,       124.715582
2015-04-03T00:14:38, 1/0386640803.15681,  7.1815032e-06,        -3.626490,        16.233505,       125.071134,  6.7706065e-06,        -2.211394,        32.952329,       124.715589
2015-04-03T00:15:10, 1/0386640835.15681,  7.1814241e-06,        -3.626507,        16.233904,       125.071118,  6.7705235e-06,        -2.211401,        32.952754,       124.715596
2015-04-03T00:15:42, 1/0386640867.15681,  7.1813475e-06,        -3.626524,        16.234292,       125.071101,  6.7704431e-06,        -2.211409,        32.953165,       124.715602
2015-04-03T00:16:14, 1/0386640899.15681,  7.1812733e-06,        -3.626540,        16.234670,       125.071085,  6.7703652e-06,        -2.211416,        32.953563,       124.715609
2015-04-03T00:16:46, 1/0386640931.15681,  7.1812016e-06,        -3.626556,        16.235037,       125.071069,  6.7702899e-06,        -2.211423,        32.953947,       124.715616
2015-04-03T00:17:18, 1/0386640963.15681,  7.1811321e-06,        -3.626571,        16.235395,       125.071052,  6.7702170e-06,        -2.211430,        32.954317,       124.715622
2015-04-03T00:17:50, 1/0386640995.15681,  7.1810650e-06,        -3.626586,        16.235742,       125.071036,  6.7701466e-06,        -2.211437,        32.954675,       124.715629
2015-04-03T00:18:22, 1/0386641027.15681,  7.1810001e-06,        -3.626600,        16.236080,       125.071019,  6.7700786e-06,        -2.211443,        32.955020,       124.715635
2015-04-03T00:18:54, 1/0386641059.15681,  7.1809375e-06,        -3.626614,        16.236407,       125.071003,  6.7700129e-06,        -2.211449,        32.955352,       124.715642
2015-04-03T00:19:26, 1/0386641091.15681,  7.1808771e-06,        -3.626627,        16.236726,       125.070986,  6.7699496e-06,        -2.211455,        32.955672,       124.715649
2015-04-03T00:19:58, 1/0386641123.15681,  7.1808188e-06,        -3.626640,        16.237035,       125.070970,  6.7698885e-06,        -2.211461,        32.955980,       124.715655
2015-04-03T00:20:30, 1/0386641155.15681,  7.1807627e-06,        -3.626653,        16.237335,       125.070954,  6.7698297e-06,        -2.211466,        32.956276,       124.715662
2015-04-03T00:21:02, 1/0386641187.15681,  7.1807087e-06,        -3.626664,        16.237625,       125.070937,  6.7697731e-06,        -2.211471,        32.956560,       124.715668
2015-04-03T00:21:34, 1/0386641219.15681,  7.1806567e-06,        -3.626676,        16.237907,       125.070921,  6.7697186e-06,        -2.211476,        32.956833,       124.715675
2015-04-03T00:22:06, 1/0386641251.15681,  7.1806067e-06,        -3.626687,        16.238181,       125.070904,  6.7696662e-06,        -2.211481,        32.957094,       124.715682
2015-04-03T00:22:38, 1/0386641283.15681,  7.1805586e-06,        -3.626697,        16.238446,       125.070888,  6.7696159e-06,        -2.211486,        32.957344,       124.715688
2015-04-03T00:23:10, 1/0386641315.15681,  7.1805125e-06,        -3.626707,        16.238702,       125.070872,  6.7695677e-06,        -2.211490,        32.957584,       124.715695
2015-04-03T00:23:42, 1/0386641347.15681,  7.1804683e-06,        -3.626717,        16.238951,       125.070855,  6.7695214e-06,        -2.211494,        32.957813,       124.715702
2015-04-03T00:24:14, 1/0386641379.15681,  7.1804259e-06,        -3.626726,        16.239191,       125.070839,  6.7694771e-06,        -2.211498,        32.958031,       124.715708
2015-04-03T00:24:46, 1/0386641411.15681,  7.1803853e-06,        -3.626735,        16.239424,       125.070822,  6.7694346e-06,        -2.211502,        32.958240,       124.715715
2015-04-03T00:25:18, 1/0386641443.15681,  7.1803465e-06,        -3.626744,        16.239649,       125.070806,  6.7693940e-06,        -2.211506,        32.958438,       124.715721
2015-04-03T00:25:50, 1/0386641475.15681,  7.1803094e-06,        -3.626752,        16.239867,       125.070790,  6.7693553e-06,        -2.211509,        32.958627,       124.715728
2015-04-03T00:26:22, 1/0386641507.15681,  7.1802739e-06,        -3.626759,        16.240077,       125.070773,  6.7693183e-06,        -2.211513,        32.958806,       124.715735
2015-04-03T00:26:54, 1/0386641539.15681,  7.1802402e-06,        -3.626767,        16.240281,       125.070757,  6.7692830e-06,        -2.211516,        32.958976,       124.715741
2015-04-03T00:27:26, 1/0386641571.15681,  7.1802080e-06,        -3.626774,        16.240477,       125.070740,  6.7692495e-06,        -2.211519,        32.959137,       124.715748
2015-04-03T00:27:58, 1/0386641603.15681,  7.1801773e-06,        -3.626780,        16.240667,       125.070724,  6.7692175e-06,        -2.211522,        32.959289,       124.715755
2015-04-03T00:28:30, 1/0386641635.15681,  7.1801482e-06,        -3.626787,        16.240850,       125.070708,  6.7691872e-06,        -2.211524,        32.959433,       124.715761
2015-04-03T00:29:02, 1/0386641667.15681,  7.1801206e-06,        -3.626793,        16.241026,       125.070691,  6.7691584e-06,        -2.211527,        32.959568,       124.715768
2015-04-03T00:29:34, 1/0386641699.15681,  7.1800945e-06,        -3.626798,        16.241197,       125.070675,  6.7691312e-06,        -2.211529,        32.959696,       124.715774
2015-04-03T00:30:06, 1/0386641731.15681,  7.1800697e-06,        -3.626804,        16.241361,       125.070658,  6.7691055e-06,        -2.211531,        32.959815,       124.715781
2015-04-03T00:30:38, 1/0386641763.15681,  7.1800463e-06,        -3.626809,        16.241520,       125.070642,  6.7690811e-06,        -2.211534,        32.959927,       124.715788
2015-04-03T00:31:10, 1/0386641795.15681,  7.1800242e-06,        -3.626813,        16.241673,       125.070625,  6.7690582e-06,        -2.211536,        32.960031,       124.715794
2015-04-03T00:31:42, 1/0386641827.15681,  7.1800034e-06,        -3.626818,        16.241820,       125.070609,  6.7690367e-06,        -2.211537,        32.960128,       124.715801
2015-04-03T00:32:14, 1/0386641859.15681,  7.1799839e-06,        -3.626822,        16.241962,       125.070593,  6.7690164e-06,        -2.211539,        32.960217,       124.715807
2015-04-03T00:32:46, 1/0386641891.15681,  7.1799656e-06,        -3.626826,        16.242098,       125.070576,  6.7689975e-06,        -2.211541,        32.960300,       124.715814
2015-04-03T00:33:18, 1/0386641923.15681,  7.1799484e-06,        -3.626829,        16.242230,       125.070560,  6.7689798e-06,        -2.211542,        32.960377,       124.715821
2015-04-03T00:33:50, 1/0386641955.15681,  7.1799324e-06,        -3.626833,        16.242356,       125.070543,  6.7689633e-06,        -2.211543,        32.960447,       124.715827
2015-04-03T00:34:22, 1/0386641987.15681,  7.1799175e-06,        -3.626836,        16.242478,       125.070527,  6.7689479e-06,        -2.211545,        32.960510,       124.715834
2015-04-03T00:34:54, 1/0386642019.15681,  7.1799037e-06,        -3.626839,        16.242595,       125.070511,  6.7689337e-06,        -2.211546,        32.960568,       124.715841
2015-04-03T00:35:26, 1/0386642051.15681,  7.1798909e-06,        -3.626842,        16.242708,       125.070494,  6.7689206e-06,        -2.211547,        32.960620,       124.715847
2015-04-03T00:35:58, 1/0386642083.15681,  7.1798792e-06,        -3.626844,        16.242816,       125.070478,  6.7689085e-06,        -2.211548,        32.960666,       124.715854
2015-04-03T00:36:30, 1/0386642115.15681,  7.1798684e-06,        -3.626846,        16.242920,       125.070461,  6.7688975e-06,        -2.211549,        32.960707,       124.715860
2015-04-03T00:37:02, 1/0386642147.15681,  7.1798585e-06,        -3.626848,        16.243020,       125.070445,  6.7688875e-06,        -2.211549,        32.960742,       124.715867
2015-04-03T00:37:34, 1/0386642179.15681,  7.1798495e-06,        -3.626850,        16.243116,       125.070429,  6.7688784e-06,        -2.211550,        32.960772,       124.715874
2015-04-03T00:38:06, 1/0386642211.15681,  7.1798415e-06,        -3.626852,        16.243209,       125.070412,  6.7688702e-06,        -2.211550,        32.960798,       124.715880
2015-04-03T00:38:38, 1/0386642243.15681,  7.1798342e-06,        -3.626853,        16.243297,       125.070396,  6.7688629e-06,        -2.211551,        32.960818,       124.715887
2015-04-03T00:39:10, 1/0386642275.15681,  7.1798278e-06,        -3.626854,        16.243383,       125.070379,  6.7688565e-06,        -2.211551,        32.960835,       124.715894
2015-04-03T00:39:42, 1/0386642307.15681,  7.1798221e-06,        -3.626855,        16.243465,       125.070363,  6.7688509e-06,        -2.211552,        32.960846,       124.715900
2015-04-03T00:40:14, 1/0386642339.15681,  7.1798172e-06,        -3.626856,        16.243543,       125.070346,  6.7688461e-06,        -2.211552,        32.960854,       124.715907
2015-04-03T00:40:46, 1/0386642371.15681,  7.1798130e-06,        -3.626857,        16.243619,       125.070330,  6.7688421e-06,        -2.211552,        32.960857,       124.715913
2015-04-03T00:41:18, 1/0386642403.15681,  7.1798095e-06,        -3.626858,        16.243691,       125.070314,  6.7688387e-06,        -2.211552,        32.960857,       124.715920
2015-04-03T00:41:50, 1/0386642435.15681,  7.1798067e-06,        -3.626858,        16.243761,       125.070297,  6.7688361e-06,        -2.211552,        32.960852,       124.715927
2015-04-03T00:42:22, 1/0386642467.15681,  7.1798045e-06,        -3.626858,        16.243828,       125.070281,  6.7688342e-06,        -2.211552,        32.960845,       124.715933
2015-04-03T00:42:54, 1/0386642499.15681,  7.1798029e-06,        -3.626858,        16.243892,       125.070264,  6.7688329e-06,        -2.211552,        32.960833,       124.715940
2015-04-03T00:43:26, 1/0386642531.15681,  7.1798020e-06,        -3.626858,        16.243954,       125.070248,  6.7688322e-06,        -2.211552,        32.960819,       124.715947
2015-04-03T00:43:58, 1/0386642563.15681,  7.1798015e-06,        -3.626858,        16.244013,       125.070232,  6.7688321e-06,        -2.211551,        32.960801,       124.715953
2015-04-03T00:44:30, 1/0386642595.15681,  7.1798016e-06,        -3.626858,        16.244070,       125.070215,  6.7688326e-06,        -2.211551,        32.960780,       124.715960
2015-04-03T00:45:02, 1/0386642627.15681,  7.1798022e-06,        -3.626858,        16.244125,       125.070199,  6.7688336e-06,        -2.211551,        32.960757,       124.715966
2015-04-03T00:45:34, 1/0386642659.15681,  7.1798033e-06,        -3.626857,        16.244178,       125.070182,  6.7688351e-06,        -2.211550,        32.960731,       124.715973
2015-04-03T00:46:06, 1/0386642691.15681,  7.1798049e-06,        -3.626857,        16.244228,       125.070166,  6.7688371e-06,        -2.211550,        32.960702,       124.715980
2015-04-03T00:46:38, 1/0386642723.15681,  7.1798069e-06,        -3.626856,        16.244277,       125.070150,  6.7688395e-06,        -2.211549,        32.960670,       124.715986
2015-04-03T00:47:10, 1/0386642755.15681,  7.1798093e-06,        -3.626855,        16.244324,       125.070133,  6.7688424e-06,        -2.211549,        32.960637,       124.715993
2015-04-03T00:47:42, 1/0386642787.15681,  7.1798121e-06,        -3.626855,        16.244370,       125.070117,  6.7688457e-06,        -2.211548,        32.960601,       124.716000
2015-04-03T00:48:14, 1/0386642819.15681,  7.1798152e-06,        -3.626854,        16.244414,       125.070100,  6.7688494e-06,        -2.211548,        32.960563,       124.716006
2015-04-03T00:48:46, 1/0386642851.15681,  7.1798188e-06,        -3.626853,        16.244456,       125.070084,  6.7688535e-06,        -2.211547,        32.960523,       124.716013
2015-04-03T00:49:18, 1/0386642883.15681,  7.1798226e-06,        -3.626852,        16.244497,       125.070067,  6.7688579e-06,        -2.211546,        32.960481,       124.716019
2015-04-03T00:49:50, 1/0386642915.15681,  7.1798268e-06,        -3.626851,        16.244536,       125.070051,  6.7688627e-06,        -2.211546,        32.960437,       124.716026
2015-04-03T00:50:22, 1/0386642947.15681,  7.1798313e-06,        -3.626849,        16.244574,       125.070035,  6.7688678e-06,        -2.211545,        32.960392,       124.716033
2015-04-03T00:50:54, 1/0386642979.15681,  7.1798360e-06,        -3.626848,        16.244611,       125.070018,  6.7688731e-06,        -2.211544,        32.960345,       124.716039
2015-04-03T00:51:26, 1/0386643011.15681,  7.1798410e-06,        -3.626847,        16.244647,       125.070002,  6.7688788e-06,        -2.211543,        32.960297,       124.716046
2015-04-03T00:51:58, 1/0386643043.15681,  7.1798462e-06,        -3.626845,        16.244682,       125.069985,  6.7688847e-06,        -2.211543,        32.960248,       124.716053
2015-04-03T00:52:30, 1/0386643075.15681,  7.1798517e-06,        -3.626844,        16.244716,       125.069969,  6.7688908e-06,        -2.211542,        32.960197,       124.716059
2015-04-03T00:53:02, 1/0386643107.15681,  7.1798574e-06,        -3.626842,        16.244749,       125.069953,  6.7688971e-06,        -2.211541,        32.960145,       124.716066
2015-04-03T00:53:34, 1/0386643139.15681,  7.1798632e-06,        -3.626841,        16.244781,       125.069936,  6.7689037e-06,        -2.211540,        32.960091,       124.716072
2015-04-03T00:54:06, 1/0386643171.15681,  7.1798693e-06,        -3.626839,        16.244812,       125.069920,  6.7689104e-06,        -2.211539,        32.960037,       124.716079
2015-04-03T00:54:38, 1/0386643203.15681,  7.1798755e-06,        -3.626838,        16.244843,       125.069903,  6.7689173e-06,        -2.211538,        32.959982,       124.716086
2015-04-03T00:55:10, 1/0386643235.15681,  7.1798818e-06,        -3.626836,        16.244873,       125.069887,  6.7689244e-06,        -2.211537,        32.959926,       124.716092
2015-04-03T00:55:42, 1/0386643267.15681,  7.1798883e-06,        -3.626835,        16.244902,       125.069871,  6.7689315e-06,        -2.211536,        32.959870,       124.716099
2015-04-03T00:56:14, 1/0386643299.15681,  7.1798949e-06,        -3.626833,        16.244931,       125.069854,  6.7689389e-06,        -2.211535,        32.959813,       124.716106
2015-04-03T00:56:46, 1/0386643331.15681,  7.1799016e-06,        -3.626831,        16.244960,       125.069838,  6.7689463e-06,        -2.211535,        32.959755,       124.716112
2015-04-03T00:57:18, 1/0386643363.15681,  7.1799084e-06,        -3.626830,        16.244988,       125.069821,  6.7689538e-06,        -2.211534,        32.959696,       124.716119
2015-04-03T00:57:50, 1/0386643395.15681,  7.1799153e-06,        -3.626828,        16.245016,       125.069805,  6.7689615e-06,        -2.211533,        32.959637,       124.716126
2015-04-03T00:58:22, 1/0386643427.15681,  7.1799223e-06,        -3.626826,        16.245043,       125.069788,  6.7689692e-06,        -2.211532,        32.959578,       124.716132
2015-04-03T00:58:54, 1/0386643459.15681,  7.1799293e-06,        -3.626824,        16.245070,       125.069772,  6.7689769e-06,        -2.211531,        32.959518,       124.716139
2015-04-03T00:59:26, 1/0386643491.15681,  7.1799364e-06,        -3.626823,        16.245097,       125.069756,  6.7689847e-06,        -2.211530,        32.959459,       124.716145
2015-04-03T00:59:58, 1/0386643523.15681,  7.1799435e-06,        -3.626821,        16.245124,       125.069739,  6.7689926e-06,        -2.211529,        32.959398,       124.716152
2015-04-03T01:00:30, 1/0386643555.15681,  7.1799506e-06,        -3.626819,        16.245151,       125.069723,  6.7690005e-06,        -2.211528,        32.959338,       124.716159
2015-04-03T01:01:02, 1/0386643587.15681,  7.1799578e-06,        -3.626817,        16.245177,       125.069706,  6.7690084e-06,        -2.211527,        32.959278,       124.716165
2015-04-03T01:01:34, 1/0386643619.15681,  7.1799649e-06,        -3.626815,        16.245204,       125.069690,  6.7690163e-06,        -2.211526,        32.959217,       124.716172
2015-04-03T01:02:06, 1/0386643651.15681,  7.1799721e-06,        -3.626814,        16.245230,       125.069674,  6.7690242e-06,        -2.211525,        32.959157,       124.716179
2015-04-03T01:02:38, 1/0386643683.15681,  7.1799793e-06,        -3.626812,        16.245257,       125.069657,  6.7690321e-06,        -2.211524,        32.959096,       124.716185
2015-04-03T01:03:10, 1/0386643715.15681,  7.1799864e-06,        -3.626810,        16.245284,       125.069641,  6.7690400e-06,        -2.211523,        32.959036,       124.716192
2015-04-03T01:03:42, 1/0386643747.15681,  7.1799935e-06,        -3.626808,        16.245310,       125.069624,  6.7690479e-06,        -2.211522,        32.958976,       124.716198
2015-04-03T01:04:14, 1/0386643779.15681,  7.1800006e-06,        -3.626806,        16.245337,       125.069608,  6.7690557e-06,        -2.211521,        32.958916,       124.716205
2015-04-03T01:04:46, 1/0386643811.15681,  7.1800077e-06,        -3.626805,        16.245364,       125.069591,  6.7690635e-06,        -2.211520,        32.958856,       124.716212
2015-04-03T01:05:18, 1/0386643843.15681,  7.1800147e-06,        -3.626803,        16.245391,       125.069575,  6.7690713e-06,        -2.211519,        32.958796,       124.716218
2015-04-03T01:05:50, 1/0386643875.15681,  7.1800217e-06,        -3.626801,        16.245419,       125.069559,  6.7690790e-06,        -2.211518,        32.958737,       124.716225
2015-04-03T01:06:22, 1/0386643907.15681,  7.1800286e-06,        -3.626799,        16.245446,       125.069542,  6.7690866e-06,        -2.211517,        32.958678,       124.716232
2015-04-03T01:06:54, 1/0386643939.15681,  7.1800354e-06,        -3.626798,        16.245474,       125.069526,  6.7690942e-06,        -2.211516,        32.958619,       124.716238
2015-04-03T01:07:26, 1/0386643971.15681,  7.1800422e-06,        -3.626796,        16.245502,       125.069509,  6.7691017e-06,        -2.211515,        32.958561,       124.716245
2015-04-03T01:07:58, 1/0386644003.15681,  7.1800490e-06,        -3.626794,        16.245531,       125.069493,  6.7691092e-06,        -2.211514,        32.958503,       124.716252
2015-04-03T01:08:30, 1/0386644035.15681,  7.1800556e-06,        -3.626793,        16.245560,       125.069477,  6.7691166e-06,        -2.211513,        32.958445,       124.716258
2015-04-03T01:09:02, 1/0386644067.15681,  7.1800622e-06,        -3.626791,        16.245589,       125.069460,  6.7691238e-06,        -2.211512,        32.958388,       124.716265
2015-04-03T01:09:34, 1/0386644099.15681,  7.1800686e-06,        -3.626789,        16.245618,       125.069444,  6.7691310e-06,        -2.211511,        32.958332,       124.716271
2015-04-03T01:10:06, 1/0386644131.15681,  7.1800750e-06,        -3.626788,        16.245648,       125.069427,  6.7691381e-06,        -2.211510,        32.958276,       124.716278